sat.trackr.live / text

‹ back to catalog

STARLINK-2542

NORAD 48292 · 2021-036S

PAYLOAD ACTIVE UNKNOWN

§ Identity

Operator
Country
US
Launch date
2021-04-29
Launch site
AFETR
Launch vehicle
Mass (kg)
RCS (m²)

Purposes: comms

External: N2YO · Heavens-Above · Gunter

§ Orbital elements

Epoch: 2026-09-14T01:22:43.630752Z

Period
94.01 min
Inclination
53.1590°
Eccentricity
0.0001493
Mean motion
15.31703506 rev/d
Perigee alt
469.7 km
Apogee alt
471.8 km
Semi-major
6,848.9 km
B*
5.4884e-5
RAAN
278.6301°
Arg perigee
87.7576°
Mean anomaly
272.3596°
Rev number
29,727

§ Raw data

STARLINK-25421 48292U 21036S   26257.05744943  .00001338  00000+0  54884-4 0  99922 48292  53.1590 278.6301 0001493  87.7576 272.3596 15.31703506297276

JSON: /api/v1/satellites/48292 · /tle

For live sub-satellite position, see the globe view (requires WebGL).

§ Visibility from observer

Set your observer location to see the next 7 days of passes ≥ 10°. The values pass through the URL so the page stays shareable.

No JS? Fill the form by hand. The geolocation button needs JavaScript.